Regional Weather Roundup
Issued by NWS

Home | Current Version | Previous Version | Graphics & Text | Print | Product List | Glossary On
Versions: 1 2 3 4 5 6 7 8 9 10 11 12 13 14 15 16 17 18 19 20 21 22 23 24 25 26 27 28 29 30 31 32 33 34 35 36 37 38 39 40 41 42 43 44 45 46 47 48 49 50
000
ASUS45 KTFX 040604
RWRMT
MONTANA HOURLY WEATHER ROUNDUP
NATIONAL WEATHER SERVICE GREAT FALLS MT
1104 PM MST TUE MAR 3 2015

NOTE: "FAIR" INDICATES FEW OR NO CLOUDS BELOW 12000 FEET WITH NO
SIGNIFICANT WEATHER AND/OR OBSTRUCTIONS TO VISIBILITY.

* THESE STATIONS ARE NOT UNDER NWS QUALITY CONTROL. THEY DO NOT
   REPORT WEATHER SUCH AS PRECIPITATION OR FOG.

MTZ001>007-043-040700-
WEST OF THE DIVIDE
CITY           SKY/WX    TMP DP  RH WIND       PRES   REMARKS
KALISPELL      CLEAR     12   9  88 CALM      30.14R
MISSOULA       CLOUDY    21  10  62 N3        30.15R
BUTTE          CLOUDY     3   0  87 SE6       30.01R WCI  -8
MULLAN PASS    CLEAR     12   5  73 NW7       29.98R WCI   1
* ANACONDA     CLEAR     14   5  67 N/A        N/A
* ESSEX        N/A       15  -1  49 E10G19     N/A   WCI   3
* LINCOLN      N/A        8  -1  66 E3         N/A
* LOOKOUT PASS N/A       14   7  73 VRB1       N/A
* POLSON       N/A       13   5  70 N/A        N/A
* RONAN APT    CLEAR     19  12  74 N/A        N/A
* SEELEY LAKE  N/A        2  -5  72 N2         N/A
* THOMP F APT  CLEAR     15   1  54 W2G9       N/A
$$

MTZ008-052>055-040700-
SOUTHWEST MONTANA
CITY           SKY/WX    TMP DP  RH WIND       PRES   REMARKS
BOZEMAN        PTCLDY     1  -2  87 CALM      30.08R
DILLON         CLEAR      3  -2  79 SE6       30.01R WCI  -8
* W YELLOWSTON PTCLDY   N/A N/A N/A S1         N/A
* THREE FORKS  CLEAR      9  -2  61 N/A        N/A
* BOULDER HILL N/A        5  -4  66 N/A        N/A
* MONIDA PASS  N/A       12   3  67 W3         N/A
* RAYNOLDS PAS N/A        4 -32  16 NE6        N/A   WCI  -7
* WHITEHALL    N/A        8  -3  60 NW2        N/A
* WISE RIVER   N/A       11   1  64 E6         N/A   WCI   1
$$

MTZ009>010-012-014-046-048-049-054-040700-
EAST SLOPES AND CENTRAL MONTANA
CITY           SKY/WX    TMP DP  RH WIND       PRES   REMARKS
CUT BANK       CLOUDY     9  -2  61 W8        30.14R WCI  -3
GREAT FALLS    CLOUDY    10   1  67 NW8       30.15R WCI  -2
HELENA         PTCLDY    12   3  67 W7        30.11R WCI   1
* DEARBORN     N/A        4   0  83 S1         N/A
* EAST GLACIER N/A       -3  -8  79 N11        N/A   WCI -20
* MONARCH      N/A        1  -8  65 W2         N/A
* PENDROY      N/A        4  -4  69 NW8        N/A   WCI  -9
* ROGERS PASS  N/A        2  -4  76 NW1        N/A
* SWEET GRASS  N/A        5 -10  49 N8         N/A   WCI  -8
$$

MTZ011-013-016-021-035-040-045-047-050-051-040700-
NORTH CENTRAL MONTANA
CITY           SKY/WX    TMP DP  RH WIND       PRES   REMARKS
HAVRE          CLEAR      3  -4  72 SW9       30.20R WCI -11
LEWISTOWN      CLOUDY     9  -6  50 NW12      30.07R WCI  -6
* N BAR RANCH  CLOUDY     5 -11  47 NW8       30.04R WCI  -8
* CHESTER      N/A        7  -6  55 N1         N/A
* DENTON       N/A       10  -3  55 W8         N/A   WCI  -2
* GEYSER       N/A       10  -4  53 W14G20     N/A   WCI  -6
* JUDITH GAP   N/A        5  -8  54 NW12G17    N/A   WCI -11
* LOMA         N/A       12   1  61 NW6        N/A   WCI   2
$$

MTZ017>020-022>027-061-062-040700-
NORTHEAST MONTANA
CITY           SKY/WX    TMP DP  RH WIND       PRES   REMARKS
GLASGOW        PTCLDY     1  -6  72 N10       30.14R WCI -15
JORDAN         CLEAR      9   0  66 N8        30.12R WCI  -3
SIDNEY         CLEAR      3  -2  79 NW18      30.15R WCI -17
WOLF POINT     FAIR       3  -8  60 N8        30.17R WCI -10
* BEAVER HILL  N/A        4   0  83 NW11G17    N/A   WCI -12
* CIRCLE       N/A        7  -3  63 NW9        N/A   WCI  -6
* LINDSAY DVD  N/A        4  -6  63 NW16G21    N/A   WCI -15
* NAVAJO       N/A       -6 -13  71 NW12G18    N/A   WCI -25
* SACO         N/A        4  -2  76 VRB12G17    N/A   WCI -12
$$

MTZ028>042-056>058-040700-
SOUTHCENTRAL AND SOUTHEAST MONTANA
CITY           SKY/WX    TMP DP  RH WIND       PRES   REMARKS
BAKER          CLEAR      7  -4  60 W13       30.02R WCI  -9
BILLINGS       CLEAR     10  -4  53 SW15      30.09R WCI  -7
LIVINGSTON     CLEAR      1  -6  72 NW10      30.05R WCI -15
MILES CITY     CLOUDY    12  -4  48 NW10      30.10R WCI  -1
* LAUREL APT   PTCLDY     5  -8  54 N/A        N/A
* ROUNDUP APT  CLEAR     10  -9  41 N/A        N/A
* ALZADA       N/A        0  -6  75 W6         N/A   WCI -12
* HYSHAM       N/A        9  -5  52 W3         N/A
* REED POINT   N/A        6  -2  69 SE4G9      N/A
$$

REGIONAL REPORTS...DAKOTAS
CITY           SKY/WX    TMP DP  RH WIND       PRES   REMARKS
WILLISTON      PTCLDY    -2  -9  72 NW16      30.11R WCI -23
DICKINSON      PTCLDY     5  -2  72 NW21G28   29.98R WCI -16
BEACH          CLOUDY     5   0  80 N16G22    30.04R WCI -14
CROSBY         FAIR      -4 -11  71 NW14      30.09R WCI -24
WATFORD CITY   CLEAR      0  -9  65 NW20G25   30.06R WCI -22
BISMARCK       CLOUDY     1  -6  72 SW8       30.05S WCI -13
GRAND FORKS    PTCLDY     0  -9  65 W10       30.04R WCI -16
FARGO          CLEAR      1  -8  65 W12       30.07S WCI -16
BUFFALO SD     CLEAR      3  -4  72 W15       29.93R WCI -16
RAPID CITY     CLEAR      3  -4  72 W3        30.06R
$$

REGIONAL REPORTS...WYOMING/IDAHO/WASHINGTON
CITY           SKY/WX    TMP DP  RH WIND       PRES   REMARKS
GILLETTE       CLEAR      0  -8  68 W9        30.02R WCI -15
SHERIDAN       CLEAR      1  -8  65 NW6       30.07R WCI -11
CODY           PTCLDY     3   0  87 SW9       30.01S WCI -11
YELLOWSTONE LA PTCLDY    -4  -9  79 NW3       29.89R
SALMON         PTCLDY    21   5  50 NE3       30.08R
MULLAN PASS    CLEAR     12   5  73 NW7       29.98S WCI   1
SAND POINT     CLEAR     21  16  81 CALM      30.16R
SPOKANE        CLEAR     27   9  46 SW8       30.14R WCI  19

$$



USA.gov is the U.S. government's official web portal to all federal, state and local government web resources and services.